Date,TemperatureHighF,TemperatureAvgF,TemperatureLowF,DewpointHighF,DewpointAvgF,DewpointLowF,HumidityHigh,HumidityAvg,HumidityLow,PressureMaxIn,PressureMinIn,WindSpeedMaxMPH,WindSpeedAvgMPH,GustSpeedMaxMPH,PrecipitationSumIn
2013-1-1,44.7,41.1,37.7,33.8,30.6,25.2,79,66,53,30.01,29.89,4,1,8,0.00
2013-1-2,40.0,35.4,30.2,31.8,22.5,17.5,73,59,45,30.23,29.98,6,3,11,0.00
2013-1-3,37.9,31.6,29.0,22.5,19.9,17.4,76,62,50,30.25,30.14,4,1,6,0.00
2013-1-4,44.2,36.8,27.4,25.8,23.4,21.3,83,59,45,30.20,30.08,5,2,10,0.00
2013-1-5,42.5,37.2,30.6,34.2,26.7,20.9,84,66,51,30.37,30.14,5,2,10,0.00
2013-1-6,46.9,41.8,32.5,39.4,33.8,29.0,91,73,58,30.21,30.02,5,1,9,0.00
2013-1-7,49.0,41.9,31.0,34.6,31.0,28.1,90,67,47,30.43,30.12,6,2,10,0.00
2013-1-8,53.6,41.1,29.9,40.7,34.7,27.8,93,79,49,30.42,30.35,4,2,11,0.00
2013-1-9,51.7,42.1,33.6,45.3,38.6,32.0,96,88,53,30.38,30.21,5,1,11,0.01
2013-1-10,53.2,45.1,38.7,38.0,34.2,30.5,83,66,45,30.58,30.36,6,1,9,0.00
2013-1-11,42.9,40.5,35.9,41.6,37.4,33.3,95,89,79,30.50,30.09,3,0,4,0.03
2013-1-12,52.2,45.1,42.3,48.9,43.0,40.7,97,92,82,30.17,30.09,3,1,4,0.00
2013-1-13,47.9,44.7,41.8,47.4,43.9,40.5,98,97,94,30.14,29.97,6,3,10,0.02
2013-1-14,61.8,53.4,41.7,60.5,49.7,37.6,100,87,65,30.28,29.94,8,3,15,0.08
2013-1-15,41.6,40.0,37.7,40.0,37.9,35.6,96,92,86,30.33,30.14,6,3,10,0.54
2013-1-16,41.7,39.0,36.3,40.6,37.7,35.0,100,95,93,30.15,29.84,7,2,9,0.56
2013-1-17,44.0,41.5,39.0,41.1,36.9,31.9,97,84,68,30.12,29.97,5,1,7,0.05
2013-1-18,39.1,35.7,29.8,32.6,21.7,11.1,78,58,37,30.50,30.01,9,3,17,0.00
2013-1-19,52.9,42.6,32.9,37.8,29.3,23.0,76,60,43,30.43,29.98,6,4,12,0.00
2013-1-20,59.9,48.1,38.8,34.6,27.0,16.5,64,45,27,30.08,29.81,6,3,13,0.00
2013-1-21,42.6,36.9,32.0,37.8,25.2,16.0,84,63,44,30.11,29.78,9,4,12,0.00
2013-1-22,31.9,23.0,19.0,16.7,4.6,0.1,56,45,36,30.28,29.90,9,6,19,0.00
2013-1-23,26.5,21.5,15.1,9.5,4.5,2.2,63,48,37,30.35,30.15,7,3,9,0.00
2013-1-24,27.5,22.7,18.2,18.2,11.7,4.9,89,64,40,30.50,30.09,10,5,17,0.00
2013-1-25,25.1,21.2,18.6,18.8,10.4,4.7,90,64,45,30.50,30.07,4,1,6,0.00
2013-1-26,34.4,27.7,21.9,22.3,20.3,18.6,92,74,59,30.43,30.08,6,2,8,0.01
2013-1-27,34.1,28.6,22.2,26.8,23.0,18.9,90,80,66,30.60,30.43,4,1,5,0.01
2013-1-28,46.6,36.5,30.1,44.0,33.2,24.6,99,88,75,30.51,30.02,4,2,8,0.13
2013-1-29,57.4,45.4,37.2,49.3,42.0,35.0,95,88,74,30.13,29.99,7,3,14,0.00
2013-1-30,57.1,49.4,42.9,55.7,47.6,41.3,97,94,88,29.99,29.27,11,6,18,0.13
2013-1-31,58.6,44.4,28.4,58.0,30.8,16.3,98,61,40,29.92,29.13,12,5,21,0.88